Location: Borz?cin
(51.1714°N, 19.6030°E)
Time: 22:29:10
(UTC+00:00)

BREEZE-M R/B - Pass Details

Date: 19 May 2025
Orbit: 537 x 26536 km, 49.1° (Epoch: 15 June)

Event Time Altitude Azimuth Distance (km) Brightness Sun altitude
Rises 20:01:30 0° 279° (W) 12,209 9.9 -11.0°
Reaches altitude 10° 20:14:19 10° 279° (W) 7,727 8.8 -12.2°
Maximum altitude 20:30:22 67° 201° (SSW) 1,278 4.0 -13.5°
Enters shadow 20:33:54 16° 121° (ESE) 1,904 4.5 -13.8°
